Total_Precipitation_Accumulation
1.06 1.03 0.95 0.85 0.73 0.68 0.67 0.63 0.55 0.50 0.44 0.37 0.31 0.31 0.29 0.26 0.24 0.24 0.23 0.19 0.20 0.28 0.39 0.49 0.58 0.63 0.65 0.66 0.62 0.60 0.56 0.50 0.44 0.40 0.35 0.32 0.28 0.25 0.25 0.25 0.26 0.26 0.27
1.23 1.18 1.08 1.02 0.89 0.77 0.72 0.72 0.65 0.62 0.59 0.54 0.43 0.37 0.33 0.29 0.25 0.23 0.22 0.22 0.23 0.24 0.28 0.40 0.53 0.66 0.77 0.84 0.82 0.77 0.70 0.63 0.59 0.54 0.48 0.42 0.37 0.35 0.34 0.33 0.31 0.29 0.28
1.34 1.27 1.23 1.11 0.96 0.89 0.85 0.86 0.84 0.80 0.72 0.66 0.57 0.50 0.45 0.41 0.35 0.30 0.27 0.25 0.26 0.28 0.30 0.36 0.47 0.60 0.76 0.93 1.02 1.03 0.94 0.83 0.72 0.64 0.60 0.55 0.50 0.45 0.45 0.45 0.42 0.39 0.36
1.43 1.41 1.35 1.32 1.17 1.09 1.04 0.97 0.95 0.91 0.80 0.73 0.67 0.62 0.57 0.53 0.49 0.45 0.41 0.37 0.35 0.30 0.31 0.36 0.43 0.54 0.67 0.84 1.05 1.18 1.18 1.04 0.87 0.77 0.69 0.65 0.64 0.64 0.63 0.63 0.58 0.51 0.46
1.50 1.44 1.32 1.33 1.37 1.27 1.16 1.10 1.03 0.99 0.90 0.83 0.79 0.72 0.66 0.62 0.58 0.56 0.56 0.52 0.48 0.44 0.40 0.40 0.39 0.40 0.49 0.64 0.81 1.05 1.21 1.18 1.01 0.88 0.81 0.77 0.76 0.75 0.72 0.69 0.66 0.61 0.56
1.50 1.43 1.32 1.32 1.36 1.33 1.22 1.16 1.08 1.04 0.99 0.97 0.93 0.83 0.76 0.69 0.65 0.62 0.58 0.58 0.56 0.54 0.49 0.46 0.42 0.41 0.42 0.50 0.63 0.83 1.05 1.17 1.15 1.04 0.94 0.88 0.84 0.82 0.82 0.82 0.78 0.73 0.70
1.54 1.55 1.45 1.41 1.42 1.36 1.29 1.30 1.33 1.25 1.14 1.14 1.07 0.90 0.79 0.74 0.67 0.62 0.58 0.55 0.53 0.53 0.50 0.46 0.42 0.39 0.39 0.43 0.49 0.62 0.84 1.07 1.20 1.21 1.13 1.05 1.00 0.95 0.96 0.99 0.98 0.95 0.89
1.70 1.67 1.65 1.63 1.56 1.46 1.40 1.38 1.40 1.38 1.30 1.30 1.27 1.19 0.97 0.81 0.68 0.60 0.58 0.54 0.54 0.54 0.51 0.50 0.48 0.43 0.38 0.38 0.42 0.49 0.61 0.84 1.09 1.28 1.33 1.26 1.20 1.15 1.16 1.18 1.21 1.19 1.14
1.93 1.77 1.70 1.77 1.73 1.60 1.50 1.46 1.44 1.42 1.45 1.44 1.37 1.42 1.19 0.89 0.73 0.65 0.59 0.55 0.54 0.58 0.59 0.59 0.56 0.51 0.44 0.39 0.38 0.43 0.48 0.58 0.84 1.18 1.38 1.41 1.35 1.31 1.37 1.42 1.47 1.48 1.43
2.01 1.94 1.86 1.80 1.81 1.77 1.63 1.58 1.56 1.51 1.52 1.51 1.44 1.30 1.21 1.03 0.92 0.76 0.63 0.59 0.58 0.55 0.55 0.57 0.58 0.57 0.55 0.52 0.49 0.48 0.49 0.49 0.64 0.97 1.34 1.54 1.60 1.60 1.63 1.66 1.73 1.80 1.79
2.02 1.97 1.91 1.79 1.69 1.66 1.67 1.67 1.63 1.59 1.50 1.41 1.35 1.27 1.20 1.05 0.90 0.85 0.71 0.59 0.60 0.56 0.54 0.55 0.58 0.59 0.61 0.60 0.56 0.60 0.64 0.61 0.70 0.91 1.24 1.54 1.74 1.88 1.97 1.98 1.93 1.91 1.89
2.06 2.01 1.98 1.85 1.69 1.58 1.53 1.55 1.57 1.57 1.55 1.47 1.37 1.30 1.24 1.17 1.02 0.97 0.90 0.72 0.66 0.62 0.59 0.59 0.57 0.57 0.59 0.62 0.67 0.82 0.82 0.83 0.90 1.08 1.36 1.66 1.85 1.95 2.03 2.12 2.16 2.11 2.02
1.87 1.89 1.91 1.87 1.77 1.67 1.67 1.65 1.62 1.54 1.52 1.49 1.43 1.35 1.29 1.19 1.08 1.09 1.10 0.94 0.79 0.66 0.61 0.62 0.63 0.65 0.68 0.73 0.82 1.03 1.02 1.07 1.13 1.28 1.55 1.76 1.83 1.83 1.85 1.98 2.15 2.24 2.24
1.74 1.75 1.74 1.71 1.70 1.63 1.59 1.60 1.60 1.56 1.54 1.49 1.43 1.35 1.26 1.16 1.11 1.14 1.20 1.24 1.15 0.92 0.76 0.71 0.72 0.79 0.86 0.93 1.10 1.27 1.14 1.29 1.33 1.44 1.62 1.81 1.77 1.65 1.57 1.64 1.80 1.97 2.01
1.63 1.64 1.66 1.57 1.53 1.52 1.50 1.48 1.45 1.40 1.39 1.36 1.32 1.31 1.25 1.16 1.17 1.19 1.26 1.40 1.56 1.44 1.13 0.90 0.90 0.95 1.01 1.10 1.30 1.24 1.17 1.43 1.45 1.42 1.46 1.47 1.42 1.38 1.37 1.37 1.42 1.52 1.58
1.34 1.41 1.45 1.45 1.42 1.44 1.45 1.40 1.32 1.26 1.23 1.16 1.12 1.15 1.17 1.15 1.16 1.19 1.26 1.36 1.48 1.59 1.42 1.04 0.91 0.96 1.08 1.17 1.35 1.25 1.20 1.41 1.36 1.35 1.34 1.29 1.22 1.19 1.18 1.18 1.15 1.15 1.19
1.08 1.16 1.25 1.32 1.31 1.32 1.35 1.33 1.23 1.17 1.12 1.06 1.02 1.04 1.04 1.02 1.08 1.11 1.16 1.25 1.36 1.51 1.57 1.28 1.07 1.07 1.14 1.15 1.17 1.08 1.03 1.06 1.05 1.16 1.12 1.08 1.06 1.02 0.98 1.00 1.04 1.05 1.03
0.97 1.00 0.99 1.00 1.06 1.11 1.17 1.21 1.18 1.11 1.05 0.99 0.96 0.96 0.96 0.97 1.03 1.08 1.15 1.23 1.28 1.35 1.42 1.32 1.12 1.02 0.96 0.91 0.89 0.86 0.80 0.78 0.77 0.92 0.89 0.85 0.83 0.82 0.79 0.79 0.85 0.91 0.90
0.80 0.87 0.87 0.85 0.83 0.82 0.88 0.97 1.03 1.06 1.02 0.98 0.98 0.99 0.98 1.00 1.03 1.07 1.14 1.21 1.22 1.20 1.18 1.12 0.97 0.84 0.76 0.72 0.73 0.71 0.67 0.67 0.63 0.72 0.77 0.75 0.72 0.68 0.65 0.64 0.67 0.74 0.78
0.53 0.57 0.62 0.65 0.69 0.70 0.70 0.75 0.82 0.91 0.98 0.99 1.00 1.01 1.03 1.08 1.14 1.19 1.20 1.18 1.15 1.11 1.06 1.00 0.91 0.81 0.71 0.63 0.64 0.66 0.65 0.62 0.59 0.55 0.63 0.65 0.67 0.68 0.62 0.55 0.51 0.52 0.61
0.34 0.38 0.44 0.47 0.53 0.58 0.61 0.65 0.68 0.74 0.79 0.86 0.95 1.02 1.07 1.16 1.19 1.13 1.03 0.95 0.90 0.90 0.89 0.89 0.82 0.72 0.63 0.58 0.57 0.52 0.54 0.55 0.56 0.53 0.53 0.53 0.54 0.54 0.54 0.55 0.52 0.49 0.52
0.29 0.32 0.36 0.40 0.46 0.49 0.62 0.63 0.59 0.60 0.69 0.75 0.80 0.87 0.95 1.00 0.94 0.90 0.84 0.78 0.79 0.83 0.82 0.74 0.66 0.57 0.47 0.41 0.42 0.48 0.55 0.63 0.63 0.50 0.50 0.51 0.49 0.52 0.49 0.49 0.56 0.54 0.52
0.34 0.35 0.37 0.39 0.43 0.50 0.62 0.63 0.67 0.63 0.66 0.70 0.70 0.70 0.68 0.66 0.67 0.58 0.60 0.60 0.62 0.64 0.61 0.56 0.54 0.45 0.39 0.36 0.45 0.55 0.57 0.58 0.50 0.40 0.48 0.57 0.52 0.51 0.45 0.46 0.58 0.57 0.56
0.53 0.52 0.52 0.53 0.56 0.65 0.72 0.67 0.65 0.59 0.58 0.58 0.54 0.50 0.48 0.46 0.45 0.47 0.49 0.50 0.43 0.40 0.38 0.35 0.33 0.31 0.33 0.39 0.48 0.59 0.60 0.61 0.53 0.47 0.49 0.60 0.52 0.48 0.43 0.43 0.51 0.52 0.56
0.79 0.78 0.78 0.75 0.73 0.72 0.68 0.57 0.50 0.44 0.43 0.40 0.37 0.35 0.34 0.34 0.40 0.46 0.45 0.44 0.41 0.38 0.38 0.39 0.38 0.38 0.42 0.45 0.50 0.57 0.67 0.79 0.72 0.53 0.45 0.49 0.46 0.42 0.44 0.46 0.49 0.54 0.55
0.75 0.73 0.72 0.68 0.62 0.54 0.48 0.40 0.35 0.30 0.28 0.26 0.26 0.27 0.31 0.33 0.42 0.51 0.46 0.45 0.45 0.40 0.41 0.43 0.41 0.39 0.37 0.38 0.45 0.45 0.52 0.78 0.80 0.62 0.37 0.41 0.46 0.53 0.66 0.49 0.46 0.53 0.56